Regional Weather Roundup
Issued by NWS Jackson, KY

Home | Current Version | Previous Version | Graphics & Text | Print | Product List | Glossary Off
Versions: 1 2 3 4 5 6 7 8 9 10 11 12 13 14 15 16 17 18 19 20 21 22 23 24 25 26 27 28 29 30 31 32 33 34 35 36 37 38 39 40 41 42 43 44 45 46 47 48 49 50

000
ASUS43 KJKL 250719
RWRJKL

EAST KENTUCKY HOURLY WEATHER ROUNDUP
NATIONAL WEATHER SERVICE JACKSON KY
300 AM EDT FRI JUL 25 2014

NOTE: "FAIR" INDICATES FEW OR NO CLOUDS BELOW 12,000 FEET WITH
NO SIGNIFICANT WEATHER AND/OR OBSTRUCTIONS TO VISIBILITY.

* THESE REPORTS ARE NOT UNDER NWS QUALITY CONTROL AND MAY NOT
  REPORT WEATHER SUCH AS PRECIPITATION AND FOG.

KYZ079-080-083-085-087-088-110-112-115-119-120-250800
...EASTERN KENTUCKY...

CITY           SKY/WX    TMP DP  RH WIND       PRES   REMARKS
JACKSON        FOG       60  58  92 CALM      30.06S VSB 1/2
LONDON         FOG       59  57  93 CALM      30.06S VSB 1/4
SOMERSET*      FOG       61  61 100 CALM      30.07S VSB<1/4
MONTICELLO*    FOG       57  57 100 CALM      30.07S VSB 3/4
WILLIAMSBURG*  CLOUDY    59  59 100 CALM      30.07S
MIDDLESBORO*   CLOUDY    61  61  99 CALM      30.07S FOG
HARLAN APT*    CLOUDY    61  59  94 MISG      30.06F VSB 1
BLACK MTN*       N/A     54  54 100 NE1         N/A
PIKEVILLE APT* FOG       61  61 100 S3        30.07F VSB 0
BIG SANDY*     FOG       61  61 100 CALM      30.06S VSB<1/4
MOREHEAD APT*    N/A     59  55  88 CALM      30.08S
ASHLAND*       PTCLDY    57  54  88 CALM      30.04
$$

KYZ035-036-041-042-044-050-067-078-099-250800
...CENTRAL KENTUCKY...

CITY           SKY/WX    TMP DP  RH WIND       PRES   REMARKS
MT STERLING*   CLEAR     55  55 100 CALM      30.08R
FLEMING/MASON* CLEAR     61  55  79 NE3       30.08R
DANVILLE*      CLEAR     57  57 100 CALM      30.06F
RICHMOND*      CLOUDY    59  57  94 CALM      30.05S VSB 1/4
LEXINGTON      CLEAR     60  54  80 N5        30.06S
FRANKFORT      CLEAR     57  55  93 CALM      30.06S
$$

KYZ091>093-OHZ055-061-077-WVZ005-015-034-035-042-250800
...SOUTHERN OHIO/WEST VIRGINIA...

CITY           SKY/WX    TMP DP  RH WIND       PRES   REMARKS
COVINGTON      CLEAR     61  50  67 E6        30.06F
COLUMBUS       CLEAR     59  51  75 CALM      30.07S
DAYTON         CLEAR     59  50  72 E6        30.08F
WILMINGTON     CLEAR     57  49  74 E7        30.07F
HUNTINGTON     CLEAR     60  60 100 N3        30.04F
CHARLESTON     FOG       63  63 100 CALM      30.05S VSB 1
PINEVILLE*     FOG       63  63 100 MISG      30.12F VSB 3/4
BECKLEY        CLOUDY    59  57  93 CALM      30.09F FOG
BLUEFIELD      PTCLDY    60  56  86 CALM      30.12S
$$

VAZ002-007-008-TNZ017-027-036-066-071-250800
...SOUTHWEST VIRGINIA/EAST TENNESSEE...

CITY           SKY/WX    TMP DP  RH WIND       PRES   REMARKS
WISE*          MOCLDY    57  57 100 E3        30.10F FOG
JONESVILLE*    FOG       57  57 100 CALM      30.08F VSB<1/4
ABINGDON*      CLEAR     63  62  97 CALM      30.07F
BRISTOL        PTCLDY    62  59  90 CALM      30.06F
KNOXVILLE      CLEAR     65  63  93 N5        30.02F
OAK RIDGE      CLEAR     63  61  93 CALM      30.04F
CROSSVILLE     FOG       61  58  90 CALM      30.07F VSB 3/4
NASHVILLE      CLEAR     67  58  72 NE5       30.03F
$$

...KEY TO REMARKS...
VSB - VISIBILITY IN MILES
WCI - WIND CHILL INDEX
HX  - HEAT INDEX

$$


USA.gov is the U.S. government's official web portal to all federal, state and local government web resources and services.